AirNav   TITAN Aviation Fuels
 
 435 users online  

73II Nulltown Wingnuts Ultralight Flightpark
Connersville, Indiana, USA

GOING TO CONNERSVILLE?


FAA INFORMATION EFFECTIVE 03 NOVEMBER 2022

Location

FAA Identifier: 73II
Lat/Long: 39-34-18.0000N 085-09-31.0000W
39-34.300000N 085-09.516667W
39.5716667,-85.1586111
(estimated)
Elevation: 765 ft. / 233 m (estimated)
Variation: 03W (1990)
From city: 5 miles S of CONNERSVILLE, IN
Time zone: UTC -5 (UTC -4 during Daylight Saving Time)
Zip code: 47331

Ultralight Flight Park Operations

Ultralight Flight Park use: Private use. Permission required prior to landing
Activation date: 11/1994
Control tower: no
ARTCC: INDIANAPOLIS CENTER
FSS: TERRE HAUTE FLIGHT SERVICE STATION
Attendance: UNATNDD
Wind indicator: yes
Segmented circle: no

Ultralight Flight Park Communications

WX AWOS-3 at CEV (8 nm N): 118.325 (765-827-6649)
WX AWOS-3 at HLB (14 nm S): 124.075 (812-933-0108)
WX AWOS-3PT at OXD (18 nm E): 118.625 (513-273-2032)
WX AWOS-3 at RID (18 nm NE): 121.225 (765-983-1903)

Nearby radio navigation aids

VOR radial/distance  VOR name  Freq  Var
SHBr096/31.0SHELBYVILLE VOR/DME116.1501E
CVGr332/39.5CINCINNATI VORTAC117.3004W

 
NDB name  Hdg/Dist  Freq  Var  ID
PNTHR190/12.422704WSQ ... --.-
BATESVILLE024/14.325405WHLB .... .-.. -...
NEW CASTLE164/19.938506WUWL ..- .-- .-..
HOOK FIELD282/33.223904WHKF .... -.- ..-.

Ultralight Flight Park Services

Runway Information

Runway NE/SW

Dimensions: 2000 x 60 ft. / 610 x 18 m
Surface: turf
RUNWAY NE  RUNWAY SW
Traffic pattern: leftleft
Obstructions: none60 ft. trees, 800 ft. from runway

Ultralight Flight Park Ownership and Management from official FAA records

Ownership: Privately-owned
Owner: NULLTOWN WINGNUTS
BOX 1025 W CR 480S
CONNERSVILLE, IN 47331
Phone 765-827-1718
Manager: G. DOUG HOWARD
1025 W COUNTY ROAD 480 S
CONNERVILLE, IN 47331-8902
Phone 765-827-1718
HOME: 765-827-1718

Ultralight Flight Park Operational Statistics

Aircraft based on the field: 13
Single engine airplanes: 5
Ultralights: 8
    

Additional Remarks

FOR CD CTC CINCINNATI APCH AT 859-372-6440

Instrument Procedures

There are no published instrument procedures at 73II.

Some nearby airports with instrument procedures:

KCEV - Mettel Field Airport (8 nm N)
KOXD - Miami University Airport (18 nm E)
KRID - Richmond Municipal Airport (18 nm NE)
KUWL - New Castle Henry County Airport / Marlatt Field (20 nm NW)
I34 - Greensburg Municipal Airport (22 nm SW)
 
Loc | Ops | Rwys | IFR | FBO | Links
Com | Nav | Svcs | Stats | Notes
Area around 73II (Nulltown Wingnuts Ultralight Flightpark)
 
Road maps at: MapQuest Bing Google
 
Aerial photo
No photo
 
Sectional chart

 
Airport distance calculator
Flying to Nulltown Wingnuts Ultralight Flightpark? Find the distance to fly.

From to 73II

Sunrise and sunset
Times for 26-Nov-2022
 Local
(UTC-5)
 Zulu
(UTC)
Morning civil twilight07:0812:08
Sunrise07:3812:38
Sunset17:1822:18
Evening civil twilight17:4722:47

Current date and time
Zulu (UTC)  26-Nov-2022 10:31:15
Local (UTC-5)  26-Nov-2022 05:31:15
 
METAR
KHLB 
14nm S 
261015Z AUTO 00000KT 3SM BR CLR M04/M04 A3019 RMK A01
KOXD 
18nm E 
261015Z AUTO 00000KT 3SM BR CLR 01/00 A3019 RMK AO2 T00100002
KRID 
18nm NE 
261015Z AUTO 00000KT 2 1/2SM BR CLR M03/M03 A3018 RMK AO2
KI67 
26nm SE 
261015Z AUTO 00000KT 1/4SM OVC002 M02/M03 A3022 RMK AO1
TAF
KCVG 
39nm SE 
260539Z 2606/2712 VRB03KT P6SM SKC FM261500 17006KT P6SM BKN250 FM270000 14005KT P6SM BKN150 FM270500 14006KT P6SM VCSH OVC040 FM270700 14008KT 5SM -RA BR OVC025 FM270900 14008KT 3SM -RA BR OVC008 WS020/18040KT
KLUK 
45nm SE 
260635Z 2607/2706 00000KT 1/2SM FZFG VV003 FM261300 17005KT P6SM BKN250 FM270000 14005KT P6SM BKN150 FM270500 14006KT P6SM VCSH OVC040
KDAY 
48nm NE 
260539Z 2606/2706 VRB03KT P6SM SKC FM261500 20007KT P6SM BKN250 FM270200 15007KT P6SM BKN150
NOTAMs
Click for the latest NOTAMs
NOTAMs are issued by the DoD/FAA and will open in a separate window not controlled by AirNav.

 

 
 

Would you like to see your business listed on this page?

 If your business provides an interesting product or service to pilots, flight crews, aircraft, or users of the Nulltown Wingnuts Ultralight Flightpark, you should consider listing it here.  To start the listing process, click on the button below
 
Add a business
 

Other Pages about Nulltown Wingnuts Ultralight Flightpark

Update a link
 
Copyright © AirNav, LLC. All rights reserved. Privacy Policy  Contact